Location: Unspecified
(22.6800°N, 112.2000°E)
Time: 08:22:17
(UTC+08:00)

Courier 1B Rocket - Pass Details

Date: 03 August 2021
Orbit: 920 x 1202 km, 28.3° (Epoch: 22 September)

Event Time Altitude Azimuth Distance (km) Brightness Sun altitude
Exits shadow 03:58:29 33° 305° (NW) 1,572 5.9 -26.5°
Maximum altitude 04:01:12 53° 4° (N) 1,146 5.5 -26.0°
Drops below altitude 10° 04:07:20 10° 81° (E) 2,618 8.1 -24.8°
Sets 04:09:58 0° 86° (E) 3,549 8.9 -24.3°
